• In Hungary
  • List of Countries
  • For 7 days
  • Water Temperature
  • Satellite Maps
  • Weather Map
  • News
  • Weather Widgets
  • user-avatar
    Login

    Hourly Weather Karasburg

    Today, 23 June, Saturday

    Time Temperature Precipitation Wind Pressure Humidity
    00:00 +16°C° 0 mm 3 mps 683 mmHg 24%
    01:00 +16°C° 0 mm 3 mps 683 mmHg 24%
    02:00 +14°C° 0 mm 3 mps 683 mmHg 25%
    03:00 +15°C° 0 mm 2 mps 683 mmHg 26%
    04:00 +15°C° 0 mm 2 mps 683 mmHg 26%
    05:00 +14°C° 0 mm 2 mps 683 mmHg 28%
    06:00 +13°C° 0 mm 3 mps 683 mmHg 29%
    07:00 +13°C° 0 mm 3 mps 683 mmHg 30%
    08:00 +16°C° 0 mm 3 mps 684 mmHg 28%
    09:00 +18°C° 0 mm 3 mps 684 mmHg 26%
    10:00 +20°C° 0 mm 3 mps 685 mmHg 23%
    11:00 +21°C° 0 mm 3 mps 684 mmHg 22%
    12:00 +22°C° 0 mm 3 mps 684 mmHg 21%
    13:00 +23°C° 0 mm 4 mps 684 mmHg 19%
    14:00 +22°C° 0 mm 4 mps 684 mmHg 20%
    15:00 +22°C° 0 mm 5 mps 683 mmHg 21%
    16:00 +22°C° 0 mm 5 mps 683 mmHg 22%
    17:00 +20°C° 0 mm 4 mps 683 mmHg 25%
    18:00 +18°C° 0 mm 4 mps 683 mmHg 29%
    19:00 +16°C° 0 mm 3 mps 683 mmHg 33%
    20:00 +15°C° 0 mm 2 mps 683 mmHg 36%
    21:00 +14°C° 0 mm 2 mps 683 mmHg 38%
    22:00 +13°C° 0 mm 1 mps 683 mmHg 41%
    23:00 +12°C° 0 mm 1 mps 683 mmHg 43%

    Tomorrow, 24 June, Sunday

    Time Temperature Precipitation Wind Pressure Humidity
    00:00 +12°C° 0 mm 1 mps 683 mmHg 44%
    01:00 +11°C° 0 mm 1 mps 683 mmHg 46%
    02:00 +11°C° 0 mm 1 mps 683 mmHg 46%
    03:00 +10°C° 0 mm 1 mps 683 mmHg 47%
    04:00 +10°C° 0 mm 1 mps 683 mmHg 48%
    05:00 +9°C° 0 mm 2 mps 683 mmHg 48%
    06:00 +9°C° 0 mm 2 mps 683 mmHg 48%
    07:00 +9°C° 0 mm 3 mps 683 mmHg 47%
    08:00 +12°C° 0 mm 3 mps 684 mmHg 41%
    09:00 +14°C° 0 mm 3 mps 685 mmHg 34%
    10:00 +18°C° 0 mm 3 mps 685 mmHg 28%
    11:00 +19°C° 0 mm 3 mps 685 mmHg 25%
    12:00 +21°C° 0 mm 3 mps 684 mmHg 22%
    13:00 +24°C° 0 mm 3 mps 684 mmHg 19%
    14:00 +24°C° 0 mm 3 mps 684 mmHg 19%
    15:00 +24°C° 0 mm 3 mps 683 mmHg 18%
    16:00 +24°C° 0 mm 3 mps 683 mmHg 18%
    17:00 +21°C° 0 mm 2 mps 683 mmHg 21%
    18:00 +19°C° 0 mm 2 mps 682 mmHg 24%
    19:00 +18°C° 0 mm 1 mps 682 mmHg 28%
    20:00 +17°C° 0 mm 2 mps 682 mmHg 28%
    21:00 +16°C° 0 mm 2 mps 682 mmHg 28%
    22:00 +16°C° 0 mm 2 mps 682 mmHg 28%
    23:00 +16°C° 0 mm 2 mps 682 mmHg 28%

    Day after tomorrow, 25 June, Monday

    Time Temperature Precipitation Wind Pressure Humidity
    00:00 +16°C° 0 mm 2 mps 682 mmHg 28%
    01:00 +16°C° 0 mm 2 mps 681 mmHg 28%
    02:00 +16°C° 0 mm 2 mps 681 mmHg 28%
    03:00 +14°C° 0 mm 3 mps 681 mmHg 28%
    04:00 +14°C° 0 mm 3 mps 681 mmHg 27%
    05:00 +14°C° 0 mm 3 mps 681 mmHg 28%
    06:00 +14°C° 0 mm 3 mps 681 mmHg 28%
    07:00 +14°C° 0 mm 4 mps 681 mmHg 28%
    08:00 +17°C° 0 mm 4 mps 682 mmHg 24%
    09:00 +20°C° 0 mm 5 mps 682 mmHg 21%
    10:00 +22°C° 0 mm 6 mps 683 mmHg 17%
    11:00 +23°C° 0 mm 6 mps 682 mmHg 16%
    12:00 +24°C° 0 mm 7 mps 682 mmHg 16%
    13:00 +26°C° 0 mm 7 mps 681 mmHg 15%
    14:00 +24°C° 0 mm 7 mps 681 mmHg 17%
    15:00 +23°C° 0 mm 6 mps 680 mmHg 19%
    16:00 +23°C° 0 mm 6 mps 680 mmHg 21%
    17:00 +20°C° 0 mm 5 mps 680 mmHg 28%
    18:00 +17°C° 0 mm 5 mps 680 mmHg 36%
    19:00 +15°C° 0 mm 5 mps 680 mmHg 43%
    20:00 +14°C° 0 mm 5 mps 680 mmHg 49%
    21:00 +13°C° 0 mm 5 mps 680 mmHg 56%
    22:00 +12°C° 0 mm 5 mps 680 mmHg 63%
    23:00 +10°C° 0 mm 5 mps 680 mmHg 68%

    26 June, Tuesday

    Time Temperature Precipitation Wind Pressure Humidity
    00:00 +9°C° 0 mm 5 mps 680 mmHg 73%
    01:00 +8°C° 0 mm 5 mps 680 mmHg 78%
    02:00 +7°C° 0 mm 5 mps 680 mmHg 80%
    03:00 +6°C° 0 mm 5 mps 680 mmHg 81%
    04:00 +6°C° 0 mm 4 mps 680 mmHg 83%
    05:00 +5°C° 0 mm 4 mps 681 mmHg 84%
    06:00 +5°C° 0 mm 4 mps 681 mmHg 84%
    07:00 +5°C° 0 mm 3 mps 682 mmHg 84%
    08:00 +8°C° 0 mm 3 mps 682 mmHg 72%
    09:00 +9°C° 0 mm 3 mps 683 mmHg 61%
    10:00 +11°C° 0 mm 3 mps 683 mmHg 49%
    11:00 +12°C° 0 mm 3 mps 683 mmHg 42%
    12:00 +14°C° 0 mm 3 mps 682 mmHg 34%
    13:00 +16°C° 0 mm 2 mps 682 mmHg 27%
    14:00 +17°C° 0 mm 2 mps 682 mmHg 25%
    15:00 +17°C° 0 mm 2 mps 682 mmHg 24%
    16:00 +17°C° 0 mm 2 mps 682 mmHg 23%
    17:00 +15°C° 0 mm 2 mps 682 mmHg 27%
    18:00 +14°C° 0 mm 2 mps 682 mmHg 32%
    19:00 +12°C° 0 mm 2 mps 682 mmHg 37%
    20:00 +12°C° 0 mm 1 mps 682 mmHg 40%
    21:00 +11°C° 0 mm 1 mps 682 mmHg 43%
    22:00 +9°C° 0 mm 0 mps 682 mmHg 46%
    23:00 +8°C° 0 mm 0 mps 682 mmHg 46%

    27 June, Wednesday

    Time Temperature Precipitation Wind Pressure Humidity
    00:00 +8°C° 0 mm 0 mps 682 mmHg 46%
    01:00 +8°C° 0 mm 0 mps 682 mmHg 46%
    02:00 +7°C° 0 mm 0 mps 682 mmHg 46%
    03:00 +7°C° 0 mm 0 mps 682 mmHg 46%
    04:00 +7°C° 0 mm 0 mps 682 mmHg 47%
    05:00 +6°C° 0 mm 0 mps 682 mmHg 46%
    06:00 +6°C° 0 mm 0 mps 683 mmHg 46%
    07:00 +6°C° 0 mm 0 mps 683 mmHg 45%
    08:00 +9°C° 0 mm 0 mps 684 mmHg 38%
    09:00 +13°C° 0 mm 1 mps 685 mmHg 30%
    10:00 +16°C° 0 mm 1 mps 686 mmHg 23%
    11:00 +18°C° 0 mm 1 mps 686 mmHg 20%
    12:00 +19°C° 0 mm 1 mps 685 mmHg 18%
    13:00 +20°C° 0 mm 1 mps 685 mmHg 15%
    14:00 +19°C° 0 mm 2 mps 685 mmHg 15%
    15:00 +19°C° 0 mm 3 mps 685 mmHg 16%
    16:00 +19°C° 0 mm 3 mps 685 mmHg 16%
    17:00 +17°C° 0 mm 3 mps 685 mmHg 20%
    18:00 +16°C° 0 mm 3 mps 685 mmHg 24%
    19:00 +13°C° 0 mm 3 mps 685 mmHg 28%
    20:00 +13°C° 0 mm 3 mps 685 mmHg 29%
    21:00 +12°C° 0 mm 3 mps 685 mmHg 30%
    22:00 +12°C° 0 mm 3 mps 684 mmHg 32%
    23:00 +11°C° 0 mm 3 mps 684 mmHg 33%

    28 June, Thursday

    Time Temperature Precipitation Wind Pressure Humidity
    00:00 +11°C° 0 mm 3 mps 684 mmHg 33%
    01:00 +11°C° 0 mm 3 mps 684 mmHg 34%
    02:00 +10°C° 0 mm 3 mps 683 mmHg 35%
    03:00 +10°C° 0 mm 3 mps 683 mmHg 36%
    04:00 +10°C° 0 mm 3 mps 683 mmHg 36%
    05:00 +10°C° 0 mm 3 mps 683 mmHg 36%
    06:00 +10°C° 0 mm 3 mps 684 mmHg 37%
    07:00 +10°C° 0 mm 3 mps 684 mmHg 37%
    08:00 +12°C° 0 mm 4 mps 684 mmHg 31%
    09:00 +15°C° 0 mm 4 mps 685 mmHg 26%
    10:00 +17°C° 0 mm 5 mps 685 mmHg 20%
    11:00 +20°C° 0 mm 4 mps 685 mmHg 17%
    12:00 +21°C° 0 mm 4 mps 685 mmHg 15%
    13:00 +23°C° 0 mm 4 mps 684 mmHg 12%
    14:00 +24°C° 0 mm 3 mps 684 mmHg 12%
    15:00 +24°C° 0 mm 3 mps 683 mmHg 12%
    16:00 +22°C° 0 mm 3 mps 683 mmHg 12%
    17:00 +20°C° 0 mm 2 mps 683 mmHg 14%
    18:00 +18°C° 0 mm 2 mps 682 mmHg 16%
    19:00 +16°C° 0 mm 2 mps 682 mmHg 18%
    20:00 +16°C° 0 mm 2 mps 682 mmHg 18%
    21:00 +15°C° 0 mm 2 mps 682 mmHg 18%
    22:00 +15°C° 0 mm 2 mps 681 mmHg 18%
    23:00 +15°C° 0 mm 2 mps 681 mmHg 19%
    Show more